Location: Mohawk View
(42.7837°N, 73.7885°W)
Time: 16:26:42
(UTC+00:00)

USA 308 - Pass Details

Date: 17 June 2021
Orbit: 566 x 576 km, 54.0° (Epoch: 13 July)

Event Time Altitude Azimuth Distance (km) Brightness Sun altitude
Exits shadow 07:12:34 33° 193° (SSW) 966 3.5 -16.7°
Maximum altitude 07:14:07 51° 136° (SE) 711 3.2 -16.6°
Drops below altitude 10° 07:18:14 10° 60° (ENE) 1,864 6.5 -16.2°
Sets 07:20:32 0° 56° (NE) 2,764 7.7 -15.9°
